Weather in Stafford

United Kingdom     52°48′06″N   2°06′49″W
temp.,
°C
wind,
m/s
gust,
m/s
humid.,
%
clouds,
%
prec.,
mm/h
press.,
hPa
HPBL,
m
27 september, mon
mon2701:00+16s81682100 0.0 1005928
04:00+17sse91684100 0.1 10021076
07:00+15s102089100 2.2 9981550
10:00+10wnw5129087 2.2 1005916
13:00+15wsw8125688 2.4 10081813
16:00+15wsw8115795 0.1 10101707
19:00+12sw611700 0.1 1013709
22:00+9ssw612831 0.0 1015489
28 september, tue
tue2801:00+8ssw5128676 0.0 1017378
04:00+9ssw61289100 0.0 1016354
07:00+9ssw61288100 0.0 1017357
10:00+11s61380100 0.0 1016787
13:00+13s7127696 0.1 1015994
16:00+14s7116999 0.1 10131074
19:00+14s81568100 0.1 10101122
22:00+12s91890100 3.6 10071443
29 september, wed
wed2901:00+8nw121891100 6.6 1008949
04:00+8w9158795 1.3 10111050
07:00+8wnw10168199 1.4 10151147
10:00+10w916715 0.0 10181557
13:00+13wnw1116535 0.1 10202009
16:00+13wnw914540 0.0 10221976
19:00+9w6126648 0.1 1023574
22:00+8sw5117892 0.0 1024349
30 september, thu
thu3001:00+9sw61378100 0.1 1023606
04:00+9ssw61382100 0.2 1021536
07:00+10ssw81587100 1.2 1018843
10:00+11ssw101891100 1.8 1015837
13:00+12ssw9169493 4.5 1013818
16:00+16w8147726 0.6 10111337
19:00+13wsw61284100 0.6 1012560
22:00+11sw51286100 0.0 1014493
1 october, fri
fri101:00+11sw61386100 0.0 1013584
04:00+11sw61388100 0.0 1012733
07:00+12ssw71591100 0.1 1009751
10:00+13ssw91586100 0.1 1006901
13:00+16ssw111974100 0.1 10021381
16:00+11wsw81587100 4.2 10011117
19:00+9wsw814808 4.3 1003885
22:00+8wsw7157889 0.0 1003814